Regional Weather Roundup
Issued by NWS

Home | Current Version | Previous Version | Graphics & Text | Print | Product List | Glossary On
Versions: 1 2 3 4 5 6 7 8 9 10 11 12 13 14 15 16 17 18 19 20 21 22 23 24 25 26 27 28 29 30 31 32 33 34 35 36 37 38 39 40 41 42 43 44 45 46 47 48 49 50
000
ASUS43 KDMX 091701
RWRIA

WEATHER ROUNDUP FOR IOWA
NATIONAL WEATHER SERVICE DES MOINES IA
1100 AM CST FRI DEC 09 2016

NOTE: "FAIR" INDICATES FEW OR NO CLOUDS BELOW 12,000 FEET WITH NO
SIGNIFICANT WEATHER AND/OR OBSTRUCTIONS TO VISIBILITY.

* - THESE STATIONS ARE NOT NWS STATIONS...THUS NOT UNDER NWS
QUALITY CONTROL.  THEY ALSO DO NOT REPORT WEATHER SUCH
AS PRECIPITATION OR FOG.

IAZ001>003-012>014-020>022-031>034-043>046-091800-
   NORTHWEST IOWA

CITY           SKY/WX    TMP DP  RH WIND       PRES   REMARKS
CARROLL *      MOSUNNY   14   9  79 SW3       30.59F
CHEROKEE *     MOSUNNY   10   7  87 W5        30.60S WCI   2
DENISON *      MOSUNNY   12   9  85 W3        30.57F
LE MARS *      CLOUDY    10   5  79 CALM      30.61F
ORANGE CITY *  MOSUNNY    9   7  92 CALM      30.56F
SHELDON *      PTSUNNY    9   5  85 NW5       30.56F WCI   0
SIOUX CITY     CLOUDY    14   4  64 CALM      30.62S
SPENCER        MOSUNNY   11   7  84 W8        30.57F WCI  -1
STORM LAKE *   PTSUNNY    9   5  85 W8        30.57S WCI  -4
$$

IAZ055>058-069>071-079>083-090>094-091800-
   SOUTHWEST IOWA

CITY           SKY/WX    TMP DP  RH WIND       PRES   REMARKS
ATLANTIC *     SUNNY     16  10  79 SW5       30.61F WCI   9
AUDUBON *      SUNNY     16  10  79 SW5       30.59F WCI   9
CLARINDA *     CLOUDY    16  12  86 CALM      30.66F
COUNCIL BLFS * MOSUNNY   14   9  79 VRB5      30.60F WCI   6
CRESTON *      CLOUDY    16  10  79 W6        30.62S WCI   7
HARLAN  *      MOSUNNY   14  10  85 SW5       30.63F WCI   6
LAMONI         MOSUNNY   18  11  74 W3        30.61S
RED OAK *      CLOUDY    16  10  79 S5        30.63F WCI   9
SHENANDOAH *   MOSUNNY   16  10  79 CALM      30.65F
$$

IAZ047>049-059>061-072>074-084-091800-
   CENTRAL IOWA

CITY           SKY/WX    TMP DP  RH WIND       PRES   REMARKS
AMES           MOSUNNY   16  10  77 VRB3      30.60F
ANKENY *       MOSUNNY   16   9  73 NW6       30.62F WCI   7
BOONE *        MOSUNNY   14   9  79 W3        30.58F
CHARITON *     MOSUNNY   18  10  73 N3        30.60F
DES MOINES     CLOUDY    18   8  65 VRB5      30.61F WCI  11
GRINNELL*      FLURRIES  17  11  79 NW7       30.61F WCI   7
KNOXVILLE *    MOSUNNY   18   9  68 W7        30.60F WCI   8
MARSHALLTOWN   CLOUDY    16  10  77 NW5       30.59F WCI   9
NEWTON *       MOSUNNY   18  10  73 N7        30.59F WCI   8
PELLA *        MOSUNNY   19  10  69 NW5G17    30.62F WCI  12
PERRY *          N/A     15  11  84 NW3       30.61F
$$

IAZ004>006-015-016-023>025-035-036-091800-
   NORTH CENTRAL IOWA

CITY           SKY/WX    TMP DP  RH WIND       PRES   REMARKS
ALGONA *       SUNNY     14   9  79 VRB5      30.57S WCI   6
CLARION *      SUNNY     14  10  85 NW6       30.58F WCI   5
ESTHERVILLE    CLOUDY    10   7  87 W6        30.56F WCI   0
FORT DODGE *   MOSUNNY   12   7  79 W5        30.59F WCI   4
MASON CITY     MOSUNNY   16  10  77 W7        30.57F WCI   6
WEBSTER CITY * CLOUDY    14  10  85 NW6       30.57F WCI   5
IOWA FALLS *   LGT SNOW  16  11  80 W6        30.59F WCI   8
$$

IAZ007>011-017>019-026>030-037>042-050>054-066-091800-
   NORTHEAST IOWA

CITY           SKY/WX    TMP DP  RH WIND       PRES   REMARKS
CEDAR RAPIDS   SUNNY     17  12  80 NW12      30.59F WCI   4
CHARLES CITY * CLOUDY    14   9  79 CALM      30.58S
CLINTON *      SUNNY     22  15  75 W9        30.59F WCI  12
DECORAH *      SUNNY     16  10  79 CALM      30.54F
DUBUQUE        SUNNY     18  11  74 W7        30.55F WCI   9
MONTICELLO *   SUNNY     18  10  73 W9        30.59F WCI   6
OELWEIN *      SUNNY     14  10  85 NW8       30.58F WCI   3
WATERLOO       SUNNY     18  10  71 NW6       30.60S WCI  10
$$

IAZ064-065-067-068-078-091800-
   EAST CENTRAL IOWA

CITY           SKY/WX    TMP DP  RH WIND       PRES   REMARKS
DAVENPORT      SUNNY     21  14  74 W9        30.59F WCI  11
IOWA CITY      SUNNY     21  11  65 NW8       30.63F WCI  11
MUSCATINE *    MOSUNNY   23  12  63 NW8       30.63F WCI  14
QUAD CITIES    SUNNY     23  13  65 W8        30.60F WCI  14
$$

IAZ062-063-075>077-085>089-095>099-091800-
   SOUTHEAST IOWA

CITY           SKY/WX    TMP DP  RH WIND       PRES   REMARKS
BURLINGTON     PTSUNNY   20  11  68 W7        30.62F WCI  11
FAIRFIELD *    PTSUNNY   19  10  68 NW5       30.61F WCI  13
FORT MADISON * FLURRIES  19  12  73 NW5       30.63S WCI  13
KEOKUK *       CLOUDY    21  12  68 VRB5      30.62F WCI  15
OSKALOOSA *      N/A     20  12  72 NW8       30.62F WCI  10
CENTERVILLE *    N/A     18  10  73 CALM      30.62F
OTTUMWA        SUNNY     19   9  65 NW7       30.62F WCI  10
WASHINGTON *   PTSUNNY   21  12  68 NW9       30.62F WCI  11
$$

ABBREVIATIONS USED IN REMARKS
   TC - TEMPERATURES IN CELSIUS
  WCI - WIND CHILL INDEX
   HX - HEAT INDEX
  VSB - VISIBILITY
$$




USA.gov is the U.S. government's official web portal to all federal, state and local government web resources and services.